Powrót do katalogu

ONEWEB-0040

AktywnyŁącznośćPO
NORAD 45147·PAYLOAD·🇬🇧 United Kingdom

Wystrzelony Feb 6, 2020 z Baikonur Cosmodrome

Loading…

Następne Przeloty (najbliższe 24 godziny)

TLE

ŚwieżeSource: CelesTrak SupGP

Epoka: Sep 14, 2026, 19:01 UTC

1 45147C 20008S   26257.79289769  .00001947  00000+0  55848-2 0  2579
2 45147  87.8910  18.4337 0001731 110.8723   1.8342 13.10378450    17

Śledź ONEWEB-0040 w czasie rzeczywistym z AllMySat

Download on the App Store